******** Week 341 almanac for PRN-01 ******** ID: 01 Health: 000 Eccentricity: 0.8959770203E-003 Time of Applicability(s): 61440.0000 Orbital Inclination(rad): 0.9588662236 Rate of Right Ascen(r/s): -0.7886042771E-008 SQRT(A) (m 1/2): 5153.602539 Right Ascen at Week(rad): -0.7627191413E+000 Argument of Perigee(rad): -0.074310434 Mean Anom(rad): 0.2315075491E+001 Af0(s): 0.3528594971E-003 Af1(s/s): 0.0000000000E+000 week: 341 ******** Week 341 almanac for PRN-02 ******** ID: 02 Health: 000 Eccentricity: 0.1667881012E-001 Time of Applicability(s): 61440.0000 Orbital Inclination(rad): 0.9644448803 Rate of Right Ascen(r/s): -0.7908900866E-008 SQRT(A) (m 1/2): 5153.598633 Right Ascen at Week(rad): -0.9258967221E+000 Argument of Perigee(rad): -0.914801202 Mean Anom(rad): -0.2577863328E+001 Af0(s): -0.4673004150E-004 Af1(s/s): 0.7275957614E-011 week: 341 ******** Week 341 almanac for PRN-03 ******** ID: 03 Health: 000 Eccentricity: 0.6335258484E-002 Time of Applicability(s): 61440.0000 Orbital Inclination(rad): 0.9919127238 Rate of Right Ascen(r/s): -0.7486026109E-008 SQRT(A) (m 1/2): 5153.655762 Right Ascen at Week(rad): 0.2194663617E+000 Argument of Perigee(rad): 1.231856231 Mean Anom(rad): 0.2621474297E-001 Af0(s): 0.6599426270E-003 Af1(s/s): -0.7275957614E-011 week: 341 ******** Week 341 almanac for PRN-04 ******** ID: 04 Health: 000 Eccentricity: 0.3569126129E-002 Time of Applicability(s): 61440.0000 Orbital Inclination(rad): 0.9687951540 Rate of Right Ascen(r/s): -0.8103194673E-008 SQRT(A) (m 1/2): 5153.710449 Right Ascen at Week(rad): 0.1291841022E+001 Argument of Perigee(rad): -2.972525201 Mean Anom(rad): -0.3067304690E+001 Af0(s): 0.1716613770E-004 Af1(s/s): 0.3637978807E-011 week: 341 ******** Week 341 almanac for PRN-05 ******** ID: 05 Health: 000 Eccentricity: 0.5567550659E-002 Time of Applicability(s): 61440.0000 Orbital Inclination(rad): 0.9785922578 Rate of Right Ascen(r/s): -0.7588887536E-008 SQRT(A) (m 1/2): 5153.589355 Right Ascen at Week(rad): 0.1615125226E+000 Argument of Perigee(rad): 1.440728163 Mean Anom(rad): -0.2602295417E+001 Af0(s): -0.2222061157E-003 Af1(s/s): 0.0000000000E+000 week: 341 ******** Week 341 almanac for PRN-06 ******** ID: 06 Health: 000 Eccentricity: 0.3559589386E-002 Time of Applicability(s): 61440.0000 Orbital Inclination(rad): 0.9878680479 Rate of Right Ascen(r/s): -0.7623174679E-008 SQRT(A) (m 1/2): 5153.624023 Right Ascen at Week(rad): -0.8159658016E+000 Argument of Perigee(rad): -0.702110047 Mean Anom(rad): 0.1505632104E+001 Af0(s): -0.5521774292E-003 Af1(s/s): -0.1091393642E-010 week: 341 ******** Week 341 almanac for PRN-07 ******** ID: 07 Health: 000 Eccentricity: 0.1991319656E-001 Time of Applicability(s): 61440.0000 Orbital Inclination(rad): 0.9507109586 Rate of Right Ascen(r/s): -0.7886042771E-008 SQRT(A) (m 1/2): 5153.624512 Right Ascen at Week(rad): 0.2301939657E+001 Argument of Perigee(rad): -2.021221922 Mean Anom(rad): 0.5117395112E+000 Af0(s): -0.9346008301E-004 Af1(s/s): -0.7275957614E-011 week: 341 ******** Week 341 almanac for PRN-08 ******** ID: 08 Health: 000 Eccentricity: 0.1084804535E-001 Time of Applicability(s): 61440.0000 Orbital Inclination(rad): 0.9452581363 Rate of Right Ascen(r/s): -0.8468924193E-008 SQRT(A) (m 1/2): 5153.568848 Right Ascen at Week(rad): -0.1931423376E+001 Argument of Perigee(rad): 0.467859646 Mean Anom(rad): -0.2903694929E+001 Af0(s): 0.5273818970E-003 Af1(s/s): 0.0000000000E+000 week: 341 ******** Week 341 almanac for PRN-09 ******** ID: 09 Health: 000 Eccentricity: 0.3543376923E-002 Time of Applicability(s): 61440.0000 Orbital Inclination(rad): 0.9628749469 Rate of Right Ascen(r/s): -0.8148910863E-008 SQRT(A) (m 1/2): 5153.562500 Right Ascen at Week(rad): 0.1228528362E+001 Argument of Perigee(rad): 2.031094676 Mean Anom(rad): -0.2352014992E+001 Af0(s): 0.7543563843E-003 Af1(s/s): 0.3637978807E-011 week: 341 ******** Week 341 almanac for PRN-10 ******** ID: 10 Health: 000 Eccentricity: 0.1069259644E-001 Time of Applicability(s): 61440.0000 Orbital Inclination(rad): 0.9914812917 Rate of Right Ascen(r/s): -0.7440309919E-008 SQRT(A) (m 1/2): 5153.608398 Right Ascen at Week(rad): 0.2169571646E+000 Argument of Perigee(rad): -2.309697196 Mean Anom(rad): -0.8930719301E+000 Af0(s): -0.5483627319E-003 Af1(s/s): -0.7275957614E-011 week: 341 ******** Week 341 almanac for PRN-11 ******** ID: 11 Health: 000 Eccentricity: 0.2241611481E-002 Time of Applicability(s): 61440.0000 Orbital Inclination(rad): 0.9647025412 Rate of Right Ascen(r/s): -0.7851755629E-008 SQRT(A) (m 1/2): 5153.691895 Right Ascen at Week(rad): -0.7942260431E+000 Argument of Perigee(rad): -2.329753919 Mean Anom(rad): 0.2521649074E+001 Af0(s): -0.5760192871E-003 Af1(s/s): 0.1455191523E-010 week: 341 ******** Week 341 almanac for PRN-12 ******** ID: 12 Health: 000 Eccentricity: 0.8837699890E-002 Time of Applicability(s): 61440.0000 Orbital Inclination(rad): 0.9600886146 Rate of Right Ascen(r/s): -0.7863184676E-008 SQRT(A) (m 1/2): 5153.572266 Right Ascen at Week(rad): -0.2864463070E+001 Argument of Perigee(rad): 1.520298923 Mean Anom(rad): -0.1466453426E+000 Af0(s): -0.6017684937E-003 Af1(s/s): 0.0000000000E+000 week: 341 ******** Week 341 almanac for PRN-13 ******** ID: 13 Health: 000 Eccentricity: 0.9811401367E-002 Time of Applicability(s): 61440.0000 Orbital Inclination(rad): 0.9745775425 Rate of Right Ascen(r/s): -0.8023191341E-008 SQRT(A) (m 1/2): 5153.618164 Right Ascen at Week(rad): 0.1401888039E+001 Argument of Perigee(rad): 1.006200392 Mean Anom(rad): 0.3086476080E+001 Af0(s): 0.6961822510E-003 Af1(s/s): 0.0000000000E+000 week: 341 ******** Week 341 almanac for PRN-14 ******** ID: 14 Health: 000 Eccentricity: 0.6242752075E-002 Time of Applicability(s): 61440.0000 Orbital Inclination(rad): 0.9434425262 Rate of Right Ascen(r/s): -0.7977475151E-008 SQRT(A) (m 1/2): 5153.591797 Right Ascen at Week(rad): -0.2916946485E+001 Argument of Perigee(rad): -2.764416514 Mean Anom(rad): -0.3252503659E+000 Af0(s): 0.7066726685E-003 Af1(s/s): 0.3637978807E-011 week: 341 ******** Week 341 almanac for PRN-15 ******** ID: 15 Health: 000 Eccentricity: 0.1670789719E-001 Time of Applicability(s): 61440.0000 Orbital Inclination(rad): 0.9406322254 Rate of Right Ascen(r/s): -0.8354633718E-008 SQRT(A) (m 1/2): 5153.576660 Right Ascen at Week(rad): 0.1087716715E+001 Argument of Perigee(rad): 1.476171134 Mean Anom(rad): 0.2359165829E+001 Af0(s): 0.3490447998E-003 Af1(s/s): 0.3637978807E-011 week: 341 ******** Week 341 almanac for PRN-16 ******** ID: 16 Health: 000 Eccentricity: 0.1467132568E-001 Time of Applicability(s): 61440.0000 Orbital Inclination(rad): 0.9592856715 Rate of Right Ascen(r/s): -0.7851755629E-008 SQRT(A) (m 1/2): 5153.539551 Right Ascen at Week(rad): -0.2847284058E+001 Argument of Perigee(rad): 0.900393542 Mean Anom(rad): -0.1946293177E+001 Af0(s): 0.1287460327E-003 Af1(s/s): 0.7275957614E-011 week: 341 ******** Week 341 almanac for PRN-17 ******** ID: 17 Health: 000 Eccentricity: 0.1317596436E-001 Time of Applicability(s): 61440.0000 Orbital Inclination(rad): 0.9609454867 Rate of Right Ascen(r/s): -0.8263201338E-008 SQRT(A) (m 1/2): 5153.716309 Right Ascen at Week(rad): -0.1828715947E+001 Argument of Perigee(rad): -1.178366890 Mean Anom(rad): -0.2987099142E+001 Af0(s): 0.6389617920E-004 Af1(s/s): -0.1455191523E-010 week: 341 ******** Week 341 almanac for PRN-18 ******** ID: 18 Health: 000 Eccentricity: 0.5686759949E-002 Time of Applicability(s): 61440.0000 Orbital Inclination(rad): 0.9728098693 Rate of Right Ascen(r/s): -0.7748894201E-008 SQRT(A) (m 1/2): 5153.623047 Right Ascen at Week(rad): -0.8191075410E+000 Argument of Perigee(rad): -2.880772477 Mean Anom(rad): 0.1285937667E+001 Af0(s): -0.5254745483E-003 Af1(s/s): 0.1091393642E-010 week: 341 ******** Week 341 almanac for PRN-19 ******** ID: 19 Health: 000 Eccentricity: 0.1081228256E-001 Time of Applicability(s): 61440.0000 Orbital Inclination(rad): 0.9601305594 Rate of Right Ascen(r/s): -0.8297488481E-008 SQRT(A) (m 1/2): 5153.621582 Right Ascen at Week(rad): -0.1784700136E+001 Argument of Perigee(rad): 2.885325359 Mean Anom(rad): -0.1123185527E+001 Af0(s): 0.6694793701E-003 Af1(s/s): 0.3637978807E-011 week: 341 ******** Week 341 almanac for PRN-20 ******** ID: 20 Health: 000 Eccentricity: 0.3605842590E-002 Time of Applicability(s): 61440.0000 Orbital Inclination(rad): 0.9604601255 Rate of Right Ascen(r/s): -0.7714607059E-008 SQRT(A) (m 1/2): 5153.557617 Right Ascen at Week(rad): 0.2388755629E-001 Argument of Perigee(rad): -2.182065200 Mean Anom(rad): 0.1575508000E+001 Af0(s): 0.3623962402E-003 Af1(s/s): 0.0000000000E+000 week: 341 ******** Week 341 almanac for PRN-21 ******** ID: 21 Health: 000 Eccentricity: 0.1659393311E-003 Time of Applicability(s): 61440.0000 Orbital Inclination(rad): 0.9613110055 Rate of Right Ascen(r/s): -0.7771752296E-008 SQRT(A) (m 1/2): 5153.642090 Right Ascen at Week(rad): 0.2297080054E+000 Argument of Perigee(rad): -0.297438725 Mean Anom(rad): -0.4126880198E+000 Af0(s): 0.2918243408E-003 Af1(s/s): 0.1455191523E-010 week: 341 ******** Week 341 almanac for PRN-22 ******** ID: 22 Health: 000 Eccentricity: 0.1271724701E-001 Time of Applicability(s): 61440.0000 Orbital Inclination(rad): 0.9587044366 Rate of Right Ascen(r/s): -0.7828897534E-008 SQRT(A) (m 1/2): 5153.596191 Right Ascen at Week(rad): -0.2843971544E+001 Argument of Perigee(rad): -1.024626137 Mean Anom(rad): -0.2376790504E+001 Af0(s): -0.8487701416E-004 Af1(s/s): 0.3637978807E-011 week: 341 ******** Week 341 almanac for PRN-23 ******** ID: 23 Health: 000 Eccentricity: 0.5829811096E-002 Time of Applicability(s): 61440.0000 Orbital Inclination(rad): 0.9865258147 Rate of Right Ascen(r/s): -0.7508884204E-008 SQRT(A) (m 1/2): 5153.641602 Right Ascen at Week(rad): 0.1855300328E+000 Argument of Perigee(rad): -2.809506411 Mean Anom(rad): 0.2513174354E+000 Af0(s): 0.5598068237E-003 Af1(s/s): 0.7275957614E-011 week: 341 ******** Week 341 almanac for PRN-24 ******** ID: 24 Health: 000 Eccentricity: 0.1759910583E-001 Time of Applicability(s): 61440.0000 Orbital Inclination(rad): 0.9345382471 Rate of Right Ascen(r/s): -0.8126052768E-008 SQRT(A) (m 1/2): 5153.604980 Right Ascen at Week(rad): 0.2195857171E+001 Argument of Perigee(rad): 1.106437198 Mean Anom(rad): 0.1496626708E+001 Af0(s): -0.2660751343E-003 Af1(s/s): 0.1091393642E-010 week: 341 ******** Week 341 almanac for PRN-25 ******** ID: 25 Health: 000 Eccentricity: 0.1254463196E-001 Time of Applicability(s): 61440.0000 Orbital Inclination(rad): 0.9483920111 Rate of Right Ascen(r/s): -0.7943188009E-008 SQRT(A) (m 1/2): 5153.737793 Right Ascen at Week(rad): -0.2956750965E+001 Argument of Perigee(rad): 1.133039181 Mean Anom(rad): -0.1833867291E+000 Af0(s): 0.4663467407E-003 Af1(s/s): -0.3637978807E-011 week: 341 ******** Week 341 almanac for PRN-26 ******** ID: 26 Health: 000 Eccentricity: 0.1057004929E-001 Time of Applicability(s): 61440.0000 Orbital Inclination(rad): 0.9291753064 Rate of Right Ascen(r/s): -0.8057478483E-008 SQRT(A) (m 1/2): 5153.600098 Right Ascen at Week(rad): -0.3028718482E+001 Argument of Perigee(rad): 0.662761343 Mean Anom(rad): -0.1056131167E+001 Af0(s): -0.2708435059E-003 Af1(s/s): -0.3637978807E-011 week: 341 ******** Week 341 almanac for PRN-27 ******** ID: 27 Health: 000 Eccentricity: 0.1365089417E-001 Time of Applicability(s): 61440.0000 Orbital Inclination(rad): 0.9543361866 Rate of Right Ascen(r/s): -0.8388920861E-008 SQRT(A) (m 1/2): 5153.597168 Right Ascen at Week(rad): -0.1900531040E+001 Argument of Perigee(rad): 0.853533351 Mean Anom(rad): -0.2825861882E+001 Af0(s): -0.2956390381E-004 Af1(s/s): 0.0000000000E+000 week: 341 ******** Week 341 almanac for PRN-28 ******** ID: 28 Health: 000 Eccentricity: 0.4281997681E-003 Time of Applicability(s): 61440.0000 Orbital Inclination(rad): 0.9616645402 Rate of Right Ascen(r/s): -0.7817468486E-008 SQRT(A) (m 1/2): 5153.654297 Right Ascen at Week(rad): 0.2274662063E+001 Argument of Perigee(rad): 0.513407940 Mean Anom(rad): 0.4040736092E+000 Af0(s): -0.6361007690E-003 Af1(s/s): 0.0000000000E+000 week: 341 ******** Week 341 almanac for PRN-29 ******** ID: 29 Health: 000 Eccentricity: 0.3297328949E-002 Time of Applicability(s): 61440.0000 Orbital Inclination(rad): 0.9635460635 Rate of Right Ascen(r/s): -0.8286059433E-008 SQRT(A) (m 1/2): 5153.520996 Right Ascen at Week(rad): -0.1812352611E+001 Argument of Perigee(rad): 2.791052203 Mean Anom(rad): -0.3014508937E+001 Af0(s): -0.4386901855E-003 Af1(s/s): 0.7275957614E-011 week: 341 ******** Week 341 almanac for PRN-30 ******** ID: 30 Health: 000 Eccentricity: 0.7683277130E-002 Time of Applicability(s): 61440.0000 Orbital Inclination(rad): 0.9359344093 Rate of Right Ascen(r/s): -0.8057478483E-008 SQRT(A) (m 1/2): 5153.549316 Right Ascen at Week(rad): 0.2294936750E+001 Argument of Perigee(rad): -2.354788591 Mean Anom(rad): 0.3941649022E+000 Af0(s): -0.9536743164E-006 Af1(s/s): 0.1091393642E-010 week: 341 ******** Week 341 almanac for PRN-31 ******** ID: 31 Health: 000 Eccentricity: 0.1089429855E-001 Time of Applicability(s): 61440.0000 Orbital Inclination(rad): 0.9545459106 Rate of Right Ascen(r/s): -0.7863184676E-008 SQRT(A) (m 1/2): 5153.685547 Right Ascen at Week(rad): 0.2325586031E+001 Argument of Perigee(rad): 0.893768139 Mean Anom(rad): -0.4726540852E+000 Af0(s): -0.1869201660E-003 Af1(s/s): 0.0000000000E+000 week: 341 ******** Week 341 almanac for PRN-32 ******** ID: 32 Health: 000 Eccentricity: 0.8754730225E-002 Time of Applicability(s): 61440.0000 Orbital Inclination(rad): 0.9659908453 Rate of Right Ascen(r/s): -0.8126052768E-008 SQRT(A) (m 1/2): 5153.611816 Right Ascen at Week(rad): 0.1245060600E+001 Argument of Perigee(rad): -2.059286442 Mean Anom(rad): -0.2173341059E+001 Af0(s): -0.2822875977E-003 Af1(s/s): 0.1455191523E-010 week: 341